Afton, Prince Edward Island

5:00 PM AST on November 23, 2017 (GMT -0400)
Afton

Weather History for 71706 - January, 2014

Change the Weather History Date:

Sunday, January 26, 2014

  Actual Average Record
Temperature  
Mean Temperature 22 °F -  
Max Temperature 40 °F 26 °F - ()
Min Temperature 5 °F 10 °F - ()
Degree Days  
Heating Degree Days 42    
Moisture  
Dew Point 22 °F    
Average Humidity 78    
Maximum Humidity 100    
Minimum Humidity 35    
Precipitation  
Precipitation 0.16 in 0.12 in - ()
Sea Level Pressure  
Sea Level Pressure 29.33 in    
Wind  
Wind Speed 21 mph ()    
Max Wind Speed 30 mph    
Max Gust Speed 44 mph    
Visibility 11.5 miles    
Events Rain , Snow    
T = Trace of Precipitation, MM = Missing Value Source: Averaged Metar Reports

Daily Weather History Graph

Daily Weather History Graph

Search for Another Location

Airport or City:

Trip Planner

Search our weather history database for the weather conditions in past years. The results will help you decide how hot, cold, wet, or windy it might be!

Date:

Astronomy

Jan. 26, 2014 Rise Set
Actual Time 7:42 AM AST 5:08 PM AST
Civil Twilight 7:09 AM AST 5:41 PM AST
Nautical Twilight 6:33 AM AST 6:17 PM AST
Astronomical Twilight 5:57 AM AST 6:52 PM AST
Moon 3:15 AM AST (1/26) 12:52 PM AST (1/26)
Length of Visible Light 10h 31m
Length of Day
9h 25m
Waning Crescent, 24% of the Moon is Illuminated
Jan 26
Waning Crescent
Jan 30
New
Feb 6
First Quarter
Feb 14
Full
Feb 22
Last Quarter

Hourly Weather History & Observations

Time (AST) Temp. Windchill Dew Point Humidity Pressure Visibility Wind Dir Wind Speed Gust Speed Precip Events Conditions
12:00 AM 35.6 °F 23.7 °F 32.0 °F 87% 29.50 in 15.0 mi SE 24.2 mph 40.3 mph N/A   Overcast
12:38 AM 37.4 °F 25.6 °F 33.8 °F 87% 29.44 in 12.0 mi SE 26.5 mph 36.8 mph N/A Rain Light Rain Showers
12:52 AM 37.4 °F 25.9 °F 33.8 °F 87% 29.42 in 10.0 mi SE 25.3 mph 43.7 mph N/A Rain Rain Showers
1:00 AM 37.4 °F 25.0 °F 33.8 °F 87% 29.40 in 10.0 mi SE 29.9 mph 41.4 mph N/A Rain Rain Showers
1:18 AM 37.4 °F 25.9 °F 35.6 °F 93% 29.37 in 10.0 mi SE 25.3 mph 34.5 mph N/A Rain Light Rain Showers
2:00 AM 37 °F - 36 °F 93% 29.32 in 7 mi SE 27.6 mph - - Rain Light Rain Showers
2:00 AM 37.4 °F 25.4 °F 35.6 °F 93% 29.32 in 8.0 mi SE 27.6 mph 40.3 mph N/A Rain Light Rain Showers
3:00 AM 39.2 °F 28.0 °F 37.4 °F 93% 29.21 in 8.0 mi SE 26.5 mph 43.7 mph N/A Rain Light Rain Showers
4:00 AM 39.2 °F 28.3 °F 39.2 °F 100% 29.13 in 8.0 mi SSE 25.3 mph 40.3 mph N/A Rain Light Rain Showers
4:41 AM 39.2 °F 27.8 °F 39.2 °F 100% 29.12 in 6.0 mi SSE 27.6 mph 38.0 mph N/A Rain Rain Showers
5:00 AM 39.2 °F - 37.4 °F 93% 29.11 in 6.0 mi North - - N/A Rain Rain Showers
5:54 AM 37.4 °F 29.3 °F 35.6 °F 93% 29.10 in 8.0 mi South 12.7 mph 18.4 mph N/A Rain Light Rain Showers
6:00 AM 37.4 °F 28.2 °F 37.4 °F 100% 29.10 in 8.0 mi South 16.1 mph - N/A Rain Light Rain Showers
6:16 AM 37.4 °F 28.9 °F 37.4 °F 100% 29.10 in 8.0 mi SSW 13.8 mph - N/A Rain Light Rain Showers
6:32 AM 35.6 °F 26.6 °F 35.6 °F 100% 29.10 in 8.0 mi South 13.8 mph - N/A Rain Light Rain Showers
7:00 AM 37.4 °F 28.2 °F 35.6 °F 93% 29.08 in 10.0 mi South 16.1 mph - N/A Rain Light Rain Showers
8:00 AM 37 °F - 36 °F 92% 29.07 in 15 mi South 19.6 mph - - Rain Light Rain Showers
8:00 AM 37.4 °F 27.2 °F 35.6 °F 93% 29.07 in 15.0 mi South 19.6 mph - N/A   Overcast
8:40 AM 37.4 °F 27.5 °F 33.8 °F 87% 29.07 in 12.0 mi SSW 18.4 mph 28.8 mph N/A Rain , Snow Light Rain Showers
9:00 AM 32.0 °F 18.9 °F 30.2 °F 93% 29.08 in 3.0 mi SW 24.2 mph 38.0 mph N/A Snow Light Snow Showers
9:15 AM 32.0 °F 19.2 °F 28.4 °F 87% 29.08 in 10.0 mi SW 23.0 mph 41.4 mph N/A Snow Light Snow Showers
10:00 AM 32.0 °F 18.9 °F 24.8 °F 75% 29.11 in 15.0 mi SW 24.2 mph 42.6 mph N/A   Scattered Clouds
10:31 AM 32.0 °F 18.6 °F 24.8 °F 75% 29.13 in 3.0 mi SW 25.3 mph 40.3 mph N/A Snow Light Snow Showers
11:00 AM 30.2 °F 17.4 °F 21.2 °F 69% 29.17 in 15.0 mi West 20.7 mph 39.1 mph N/A   Mostly Cloudy
12:00 PM 28.4 °F 16.2 °F 21.2 °F 74% 29.22 in 15.0 mi West 17.3 mph 26.5 mph N/A Snow Light Snow Showers
1:00 PM 26.6 °F 12.7 °F 15.8 °F 64% 29.25 in 15.0 mi WSW 20.7 mph 28.8 mph N/A Snow Light Snow Showers
2:00 PM 28 °F - 17 °F 52% 29.28 in 15 mi WSW 19.6 mph - - Snow Light Snow Showers
2:00 PM 28.4 °F 16.6 °F 17.6 °F 64% 29.28 in 15.0 mi SW 16.1 mph 28.8 mph N/A   Scattered Clouds
2:52 PM 26.6 °F 12.4 °F 15.8 °F 64% 29.31 in 12.0 mi WSW 21.9 mph 33.4 mph N/A Snow Light Snow Showers
3:00 PM 26.6 °F 10.8 °F 17.6 °F 69% 29.31 in 15.0 mi SW 27.6 mph 35.7 mph N/A Snow Light Snow Showers
3:35 PM 24.8 °F 9.6 °F 17.6 °F 74% 29.35 in 10.0 mi West 23.0 mph 36.8 mph N/A Snow Light Snow Showers
4:00 PM 23.0 °F 5.7 °F 12.2 °F 63% 29.39 in 15.0 mi WSW 28.8 mph 39.1 mph N/A Snow Light Snow Showers
5:00 PM 17.6 °F 3.7 °F 8.6 °F 68% 29.45 in 15.0 mi West 13.8 mph 29.9 mph N/A   Scattered Clouds
6:00 PM 12.2 °F -5.8 °F -0.4 °F 57% 29.54 in 15.0 mi West 19.6 mph 33.4 mph N/A   Scattered Clouds
7:00 PM 8.6 °F -10.0 °F -0.4 °F 67% 29.62 in 15.0 mi West 18.4 mph 26.5 mph N/A   Scattered Clouds
7:13 PM 8.6 °F -9.5 °F -0.4 °F 67% 29.63 in 8.0 mi West 17.3 mph 28.8 mph N/A Snow Light Snow Showers
7:48 PM 6.8 °F -15.1 °F -7.6 °F 52% 29.68 in 15.0 mi WSW 25.3 mph 36.8 mph N/A   Partly Cloudy
8:00 PM 7 °F - -7 °F 35% 29.69 in 15 mi West 21.9 mph - - Snow Light Snow Showers
8:00 PM 6.8 °F -13.8 °F -7.6 °F 52% 29.69 in 15.0 mi West 21.9 mph 34.5 mph N/A   Partly Cloudy
9:00 PM 5.0 °F -12.3 °F -7.6 °F 56% 29.76 in 15.0 mi WSW 13.8 mph 27.6 mph N/A   Partly Cloudy
10:00 PM 5.0 °F -16.2 °F -7.6 °F 56% 29.81 in 15.0 mi WSW 21.9 mph 31.1 mph N/A   Scattered Clouds
11:00 PM 5.0 °F -14.7 °F -9.4 °F 52% 29.85 in 15.0 mi WSW 18.4 mph 28.8 mph N/A   Partly Cloudy